Flag Weather past 2 weeks in Strausberg, Brandenburg, Germany

Now
37 °F

Partly cloudy.


Feels Like: 29 °F
Forecast: 29 / 35 °F
Wind: 14 mph from East

Location: Berlin-Schoenefeld

Current Time: Nov 27, 2014 at 8:41:53 PM

Latest Report: Nov 27, 2014 at 8:20 PM


Visibility: N/A

Pressure: 30.04 "Hg

Humidity: 87%

Dew point: 34 °F

Location of StrausbergLocation

Historic Weather in Strausberg — Graph

°F

Strausberg temperature yesterday

Maximum temperature yesterday: 41 °F (at 12:20 PM)
Minimum temperature yesterday: 36 °F (at 10:50 PM)
Average temperature yesterday: 39 °F

Past Weeks' High & Low Weather Summary

 TemperatureHumidityPressure
High52 °F (Nov 13, 12:20 PM)100% (Nov 12, 7:50 PM)30.36 "Hg (Nov 12, 7:50 PM)
Low32 °F (Nov 27, 4:20 AM)71% (Nov 22, 9:50 AM)29.59 "Hg (Nov 16, 6:50 AM)
Average43 °F92%30.06 "Hg
* Reported Nov 12 7:20 PM — Nov 27 7:20 PM, Strausberg, Weather by CustomWeather, © 2014

Note: Actual official high and low records may vary slightly from our data, if they occured in-between our weather recording intervals... More about our weather records

Advertising

Strausberg weather history for previous 24 hours

 ConditionsComfort  
Time TempWeatherWind HumidityBarometerVisibility
7:20 PM
Nov 27
37 °FPassing clouds.15 mph87%30.04 "Hg6 mi
6:50 PM37 °FPassing clouds.17 mph87%30.04 "Hg6 mi
6:20 PM36 °FPartly cloudy.15 mph93%30.01 "Hg6 mi
5:50 PM36 °FPassing clouds.16 mph93%30.01 "Hg6 mi
5:20 PM36 °FPassing clouds.15 mph93%30.01 "Hg6 mi
4:50 PM36 °FPassing clouds.14 mph93%30.01 "Hg6 mi
4:20 PM36 °FClear.12 mph87%30.01 "Hg4 mi
3:50 PM36 °FScattered clouds.10 mph87%30.01 "Hg4 mi
3:20 PM37 °FPassing clouds.14 mph81%30.01 "Hg5 mi
2:50 PM37 °FScattered clouds.13 mph87%30.01 "Hg5 mi
2:20 PM39 °FPassing clouds.14 mph75%30.01 "Hg6 mi
1:50 PM39 °FPassing clouds.15 mph81%30.01 "HgN/A
1:20 PM39 °FScattered clouds.15 mph81%30.01 "HgN/A
12:50 PM39 °FScattered clouds.14 mph81%30.01 "HgN/A
12:20 PM37 °FSunny.13 mph81%30.04 "Hg10 mi
11:50 AM37 °FSunny.16 mph87%30.04 "Hg10 mi
11:20 AM36 °FSunny.14 mph93%30.04 "Hg10 mi
10:50 AM36 °FClear.15 mph87%30.04 "Hg6 mi
10:20 AM34 °FClear.15 mph93%30.04 "Hg4 mi
9:20 AM32 °FClear.14 mph100%30.07 "Hg4 mi
8:50 AM32 °FIce fog.13 mph100%30.07 "Hg3 mi
8:20 AM32 °FIce fog.13 mph100%30.07 "Hg3 mi
7:50 AM32 °FIce fog.12 mph100%30.07 "Hg2 mi
7:20 AM32 °FIce fog.12 mph100%30.07 "Hg2 mi
6:50 AM32 °FClear.13 mph100%30.07 "Hg5 mi
6:20 AM32 °FClear.12 mph100%30.07 "Hg5 mi
5:50 AM32 °FClear.12 mph100%30.07 "Hg5 mi
5:20 AM32 °FClear.12 mph100%30.07 "Hg4 mi
4:50 AM32 °FClear.10 mph100%30.07 "Hg4 mi
4:20 AM32 °FClear.12 mph100%30.07 "Hg4 mi
3:50 AM34 °FClear.13 mph100%30.07 "Hg4 mi
3:20 AM34 °FClear.13 mph93%30.07 "Hg4 mi
2:50 AM34 °FClear.12 mph100%30.09 "Hg4 mi
2:20 AM34 °FClear.12 mph100%30.09 "Hg4 mi
1:50 AM34 °FClear.12 mph100%30.09 "Hg4 mi
1:20 AM34 °FClear.10 mph100%30.09 "Hg4 mi
12:50 AM36 °FClear.12 mph100%30.12 "Hg4 mi
12:20 AM36 °FPassing clouds.12 mph100%30.12 "Hg4 mi
11:50 PM
Nov 26
36 °FPassing clouds.10 mph100%30.12 "Hg4 mi
11:20 PM36 °FPassing clouds.9 mph100%30.15 "Hg4 mi
10:50 PM36 °FClear.7 mph100%30.15 "Hg4 mi
10:20 PM37 °FPassing clouds.9 mph93%30.15 "Hg4 mi
9:50 PM37 °FPassing clouds.10 mph100%30.15 "Hg4 mi
9:20 PM37 °FPassing clouds.10 mph100%30.15 "Hg4 mi
8:50 PM37 °FPartly cloudy.12 mph100%30.15 "Hg4 mi
8:20 PM37 °FPassing clouds.13 mph93%30.15 "Hg4 mi
Weather by CustomWeather, © 2014

See weather overviewHow to use our weather pages